カタログに戻る

STARLINK-6101

運用中通信VLEO
NORAD 56115·PAYLOAD·🇺🇸 United States

打ち上げ Mar 29, 2023 から Cape Canaveral Space Force Station

Loading…

次のパス (今後24時間)

TLE

最新Source: CelesTrak SupGP

元期: Sep 14, 2026, 21:49 UTC

1 56115C 23046Y   26257.90951389 -.00026169  00000+0 -94798-3 0  2571
2 56115  43.0029 169.7408 0001454 261.9725 247.2428 15.27586344    14

AllMySatでSTARLINK-6101をリアルタイム追跡

Download on the App Store